EHI
0 0 0 1 2 4 6 5 5 7 9 10 9 7 5 4 2 1 1 0 1 2 1 0 0 0 0 0 0 0 0 0 0 1 1 1 0 0 0 0 0 0 0
0 0 1 3 4 4 5 5 6 6 8 8 7 6 5 4 4 2 1 0 1 2 1 0 0 0 0 0 0 0 0 0 0 0 0 0 0 0 0 0 0 0 0
1 0 1 3 4 3 4 6 6 5 5 5 4 4 4 4 3 1 1 0 0 1 1 0 0 0 0 0 0 0 0 0 0 0 0 0 0 0 0 0 0 0 0
3 1 1 3 3 3 4 5 5 3 3 3 3 4 4 3 1 0 0 0 0 0 0 0 0 0 0 0 0 0 1 1 1 0 0 0 0 0 0 0 0 0 0
4 2 1 3 3 4 4 4 3 2 1 2 3 3 3 2 1 0 0 0 0 0 0 0 0 0 0 0 0 0 1 2 1 0 0 0 0 0 0 0 0 0 0
3 2 2 4 4 4 4 3 3 2 1 1 2 2 2 2 1 0 0 0 0 0 0 0 0 0 0 0 0 0 1 1 1 0 0 0 0 0 0 0 0 0 0
3 2 2 4 5 4 4 3 3 2 1 0 1 2 2 1 0 0 0 0 0 0 0 0 0 0 0 0 0 0 1 1 0 0 0 0 0 0 0 0 0 1 1
3 2 1 2 3 3 3 3 3 2 1 0 1 1 1 0 0 0 0 0 0 0 0 0 0 0 1 1 0 0 1 0 0 0 0 0 0 0 0 0 0 1 2
2 2 1 1 1 1 2 3 3 2 1 0 0 0 0 0 0 0 0 0 0 0 0 0 0 1 2 2 1 0 0 0 0 0 0 0 0 0 0 0 0 1 2
1 2 3 2 1 0 1 2 2 1 0 0 0 0 0 0 0 0 0 0 0 0 0 0 0 1 2 2 1 0 0 0 0 0 0 0 0 0 0 0 0 0 1
1 2 3 3 2 0 0 1 1 0 0 0 0 0 0 0 0 0 0 0 0 0 0 0 0 0 1 1 0 0 0 0 0 0 0 0 0 0 0 0 0 0 0
0 1 2 2 1 0 0 0 0 0 0 0 0 0 0 0 0 0 0 0 0 0 0 0 0 0 0 0 0 0 0 0 0 0 0 1 1 0 0 0 0 0 0
0 0 1 1 0 0 0 0 0 0 0 0 0 0 0 0 0 0 0 0 0 0 0 0 0 0 0 0 0 0 0 0 0 0 1 2 2 1 0 0 0 0 0
0 0 0 0 0 0 0 0 0 0 0 0 0 0 0 0 0 0 0 0 0 0 0 0 0 0 0 0 0 0 0 0 0 0 1 2 2 1 0 0 0 1 1
0 0 0 0 0 0 0 0 0 0 0 0 0 0 0 0 0 0 0 0 0 0 0 0 0 0 0 0 0 0 0 0 0 0 0 1 1 0 0 0 0 1 1
0 0 0 0 0 0 0 0 0 0 0 0 0 0 0 0 0 0 0 0 0 0 0 0 0 0 0 0 0 0 0 0 0 0 0 0 0 0 0 0 0 0 1
0 0 0 0 0 0 0 0 0 0 0 0 0 0 0 0 0 0 0 0 0 0 0 0 0 0 0 0 0 0 0 0 0 0 0 0 0 0 0 0 0 0 0
0 0 0 0 0 0 0 0 0 0 0 0 0 0 0 0 0 0 0 0 0 0 0 0 0 0 0 0 0 0 0 0 0 0 0 0 0 0 0 0 0 0 0
0 0 0 0 0 0 0 0 0 0 0 0 0 0 0 0 0 0 0 0 0 0 0 0 0 0 0 0 0 0 0 0 0 0 0 0 0 0 0 0 0 0 0
0 0 0 0 0 0 0 0 0 0 0 0 0 0 0 0 0 0 0 0 0 0 0 0 0 0 0 0 0 0 0 0 0 0 0 0 0 0 0 0 0 0 0
0 0 0 0 0 0 0 0 0 0 0 0 0 0 0 0 0 0 0 0 0 0 0 0 0 0 0 0 0 0 0 0 0 0 0 0 0 0 0 0 0 0 0
0 0 0 0 0 0 0 0 0 0 0 0 0 0 0 0 0 0 0 0 0 0 0 0 0 0 0 0 0 0 0 0 0 0 0 0 0 0 0 0 0 0 0
0 0 0 0 0 0 0 0 0 0 0 0 0 0 0 0 0 0 0 0 0 0 0 0 0 0 0 0 0 0 0 0 0 0 0 0 0 0 0 0 0 0 0
0 0 0 0 0 0 0 0 0 0 0 0 0 0 0 0 0 0 0 0 0 0 0 0 0 0 0 0 0 0 0 0 0 0 0 0 0 0 0 0 0 0 0
0 0 0 0 0 0 0 0 0 0 0 0 0 0 0 0 0 0 0 0 0 0 0 0 0 0 0 0 0 0 0 0 0 0 0 0 0 0 0 0 0 0 0
0 0 0 0 0 0 0 0 0 0 0 0 0 0 0 0 0 0 0 0 0 0 0 0 0 0 0 0 0 0 0 0 0 0 0 0 0 0 0 0 0 0 0
Wind_Speed
1 2 9 10 11 12 12 13 13 14 14 14 14 14 14 13 13 13 12 12 12 11 11 10 10 9 9 8 8 7 7 7 7 7 6 6 6 6 6 6 6 4 7
4 4 10 11 12 13 13 13 13 14 14 14 14 13 13 13 12 12 11 11 11 10 10 9 9 8 8 7 7 7 7 6 6 6 6 5 5 5 6 6 6 3 6
6 5 8 11 12 13 13 14 14 14 14 13 13 13 13 12 12 11 11 10 10 9 9 8 7 7 7 7 6 6 6 6 5 5 5 2 2 5 6 6 6 6 5
7 5 7 12 13 13 13 13 13 13 13 13 12 12 12 11 11 10 9 9 9 8 8 7 7 6 6 6 6 6 6 5 5 5 3 2 2 6 6 6 6 5 5
7 5 7 12 13 13 13 13 13 12 12 12 11 11 11 10 9 9 8 8 8 7 7 7 6 6 6 6 6 6 5 5 5 5 2 2 2 4 5 5 5 5 5
7 5 8 12 13 13 13 12 12 11 11 11 10 10 9 9 8 8 7 7 7 6 6 6 5 5 5 5 5 6 6 6 4 2 2 2 2 4 5 4 4 4 4
7 5 7 12 12 12 12 11 11 10 10 9 8 8 7 7 7 7 6 6 6 5 5 5 4 4 4 5 5 5 5 5 3 2 1 1 2 5 5 4 3 3 3
8 6 6 11 12 11 11 10 10 9 8 8 7 6 6 5 5 5 4 4 4 4 4 3 3 3 4 4 4 4 5 5 4 2 1 1 3 5 5 4 3 3 4
7 6 4 4 7 10 10 9 8 8 7 6 5 4 3 3 3 3 2 3 3 3 2 2 3 3 4 4 4 4 4 4 2 1 1 1 3 4 5 4 4 4 4
5 5 4 3 3 3 4 7 7 6 4 3 2 1 1 1 2 1 1 1 1 2 2 3 4 4 5 4 4 4 3 3 2 1 0 1 3 4 4 4 4 4 4
5 4 4 3 3 3 2 3 3 3 1 0 1 1 1 1 1 1 2 2 2 3 4 5 5 6 5 4 4 3 3 1 1 1 0 2 3 4 4 4 3 3 4
5 4 4 4 3 3 2 2 1 1 1 1 1 1 0 0 1 1 3 3 3 4 5 6 6 6 4 2 3 3 1 1 1 1 0 3 4 4 4 4 4 3 4
5 4 4 4 3 3 2 2 1 1 1 1 2 1 1 1 1 2 2 3 3 4 3 4 4 3 2 2 1 1 1 0 0 1 0 3 4 4 4 4 4 4 4
5 4 4 4 3 3 3 2 2 1 1 2 2 3 2 2 2 1 1 2 2 2 2 2 2 3 3 2 1 1 1 1 0 0 0 2 3 3 4 4 4 4 4
5 4 3 4 4 3 3 2 3 2 2 2 3 3 3 2 2 2 2 2 2 2 2 2 2 3 3 3 2 2 1 1 1 1 0 1 2 3 3 4 4 4 3
5 4 3 4 4 4 4 3 2 2 3 3 3 3 4 3 2 2 2 2 3 2 2 2 2 2 2 2 3 3 1 1 1 1 1 1 1 2 2 3 3 3 3
5 4 4 5 5 5 4 4 3 3 3 4 3 3 4 3 3 3 3 3 3 3 3 3 3 3 3 4 4 3 2 2 1 2 1 1 1 1 2 2 2 3 3
5 4 4 5 5 5 5 5 3 3 4 3 3 3 4 4 4 3 3 3 3 3 3 2 3 3 3 3 3 3 3 2 2 2 2 2 1 1 2 2 3 2 3
5 5 5 5 5 5 5 4 4 4 4 3 3 3 3 4 4 3 3 3 3 3 3 3 3 2 2 3 2 3 3 3 2 3 3 2 2 2 2 2 3 3 3
5 6 6 5 5 5 4 4 3 4 3 3 3 3 4 3 4 4 3 3 3 3 3 3 3 3 2 2 3 4 3 3 3 3 3 2 2 3 2 3 2 3 5
6 6 6 5 4 4 3 3 3 2 1 2 2 3 4 4 4 4 3 3 3 3 3 3 2 4 3 2 3 3 4 4 4 3 3 3 3 3 3 3 2 2 2
6 6 5 5 4 3 3 2 2 2 1 1 2 3 4 4 4 3 3 2 3 3 4 4 3 2 3 3 2 2 3 5 4 4 3 3 3 3 3 3 3 2 2
6 6 5 4 4 4 4 3 3 3 3 3 3 2 3 4 4 4 3 3 3 3 2 3 2 3 2 3 2 3 2 0 2 3 4 3 3 2 2 2 3 2 2
6 6 5 4 4 4 5 5 5 3 2 1 0 1 2 3 3 3 4 4 3 3 2 2 3 2 2 2 2 2 1 2 2 1 3 3 3 3 2 2 2 2 2
6 6 5 5 4 4 5 5 5 3 2 1 1 2 2 3 4 3 3 4 4 3 3 3 3 3 2 2 1 1 2 2 2 2 1 3 3 3 2 2 1 1 1
5 5 5 5 4 4 4 5 5 5 4 3 2 2 2 2 3 4 3 4 3 3 3 3 3 4 3 3 2 2 2 1 1 1 1 1 2 3 2 2 2 2 1
Wind_Direction
97 114 110 106 102 99 97 96 95 94 92 91 89 87 86 84 82 83 83 81 78 75 75 74 73 73 73 72 71 69 67 66 66 67 69 73 72 80 83 86 89 92 92
132 114 109 106 104 101 99 95 93 92 91 90 88 87 86 84 82 81 81 80 77 74 70 69 70 70 70 67 65 64 62 60 67 64 68 66 68 81 87 87 87 100 99
116 109 106 105 103 101 99 96 93 91 91 91 90 88 86 84 81 78 77 78 76 74 71 69 70 70 67 63 59 56 53 55 59 65 68 49 60 92 89 88 85 97 100
115 110 110 108 106 103 100 97 95 94 93 92 91 89 87 84 81 78 75 76 75 73 70 68 67 66 62 56 51 46 43 43 51 63 57 46 66 96 93 92 92 96 96
111 109 117 113 109 107 104 102 99 98 96 94 93 91 89 87 84 79 76 75 74 71 68 64 59 58 55 49 43 40 39 39 47 53 58 59 67 99 97 97 95 95 96
114 114 119 115 113 110 108 106 103 101 100 98 96 93 91 88 84 82 80 77 73 69 65 60 56 51 48 43 38 33 34 34 43 55 66 76 82 98 97 99 94 90 98
121 119 121 118 116 116 115 114 111 108 107 105 101 96 92 88 85 81 79 76 73 68 61 52 46 39 39 33 26 25 30 34 51 69 79 90 100 100 95 94 96 94 102
132 128 123 125 125 122 122 122 118 116 115 113 107 101 95 89 86 84 81 75 70 64 54 40 24 18 15 9 8 18 28 33 51 63 72 108 108 102 98 95 87 90 93
133 133 131 134 132 133 133 132 132 131 128 124 119 112 104 89 80 85 82 78 70 50 32 13 1 0 353 352 356 4 21 39 49 35 102 130 110 104 97 94 87 85 80
136 141 148 151 147 146 143 146 146 145 146 144 140 130 93 42 42 56 51 40 38 18 358 346 336 335 340 346 352 2 16 28 32 13 5 149 121 111 101 93 90 89 76
144 156 163 166 168 170 174 173 154 154 156 44 348 324 348 346 337 328 300 285 329 337 332 328 325 329 340 345 349 4 10 17 3 352 266 148 127 122 112 101 92 95 84
164 174 176 178 180 185 186 136 78 30 8 14 359 344 9 40 315 318 313 312 335 341 337 333 333 337 345 343 346 356 6 11 354 322 225 144 127 122 114 107 97 95 95
165 167 171 171 168 157 128 119 87 35 19 13 21 56 76 59 27 16 356 343 344 344 345 342 346 348 351 344 342 352 345 5 311 289 234 139 125 118 114 110 102 99 100
138 146 153 156 140 129 118 111 111 92 68 51 49 69 76 62 42 29 9 349 348 345 349 352 360 358 0 351 3 18 25 60 103 213 136 123 122 119 116 108 100 100 99
117 118 130 125 117 114 105 102 97 90 83 68 51 52 74 78 56 35 17 11 358 356 8 11 13 19 14 16 35 59 55 77 79 77 21 109 108 115 115 106 99 97 101
123 125 113 112 119 107 99 99 97 83 72 61 54 52 63 68 63 48 32 18 11 12 22 37 36 32 17 25 29 37 66 81 71 71 52 31 55 83 107 105 98 94 98
136 127 116 118 104 97 97 99 92 84 76 63 55 52 57 60 63 61 46 27 11 13 25 31 33 32 30 32 27 27 44 49 64 56 56 42 5 24 87 102 101 94 90
134 122 118 118 103 95 95 96 90 83 79 68 59 51 47 49 56 59 50 27 13 26 32 37 34 32 24 24 21 18 28 36 51 63 58 52 33 21 38 69 77 73 71
135 127 119 114 106 97 93 88 83 79 74 68 61 52 44 47 52 58 46 25 27 34 28 31 37 39 30 18 21 23 21 29 30 60 59 49 43 47 39 37 47 50 52
128 120 115 107 101 99 88 80 69 63 53 53 58 52 51 45 49 57 49 33 35 40 28 28 32 29 34 16 35 33 18 15 23 37 47 50 41 47 49 45 35 36 47
125 120 122 115 108 107 99 99 96 84 56 48 50 54 52 47 47 58 52 37 38 45 33 29 33 32 20 17 48 18 0 13 24 22 27 48 45 43 49 49 42 36 29
136 131 131 131 130 124 123 127 130 127 102 70 38 39 40 44 39 51 54 43 41 44 34 32 39 40 19 27 80 70 15 357 355 11 12 34 38 35 42 46 47 51 38
142 146 143 147 136 126 118 100 82 61 45 34 26 18 11 31 37 41 47 47 41 50 41 31 46 65 40 14 51 111 112 253 321 341 2 14 14 25 25 32 49 51 48
151 146 141 143 133 126 120 116 117 118 122 167 181 7 10 25 34 41 45 50 48 44 36 26 54 65 77 35 11 39 122 157 134 350 341 353 6 15 4 22 37 39 39
146 141 139 132 124 122 120 123 120 116 126 105 71 55 29 15 24 40 50 53 50 43 40 42 47 54 66 76 43 27 43 48 73 117 351 338 351 343 345 352 12 17 19
137 134 132 132 134 131 124 125 126 129 125 109 88 70 34 8 11 28 49 52 51 48 47 48 53 58 52 59 53 53 70 69 47 100 124 320 328 319 337 349 357 338 334